Location: Chacón
(10.5789°N, 66.9317°W)
Time: 22:12:59
(UTC+00:00)

Cosmos 1339 Rocket - Pass Details

Date: 16 August 2024
Orbit: 941 x 1006 km, 82.9° (Epoch: 12 September)

Event Time Altitude Azimuth Distance (km) Brightness Sun altitude
Rises 09:37:15 0° 145° (SE) 3,702 7.8 -10.6°
Reaches altitude 10° 09:41:02 10° 123° (ESE) 2,741 7.5 -9.7°
Maximum altitude 09:44:21 15° 90° (E) 2,388 7.8 -8.9°
Drops below altitude 10° 09:47:39 10° 58° (ENE) 2,717 8.3 -8.1°
Sets 09:51:21 0° 36° (NE) 3,649 8.4 -7.2°
